#timestamp,LO_Frequency,Hit,StdDev 
1514541615.2,286046999.2,N
1514541635.0,286046996.7,N
1514541635.9,286046996.7,N
1514541655.8,286046994.9,Y
1514541675.6,286046995.8,P
1514541695.5,286046995.3,P
1514541715.3,286046997.1,N
1514541735.1,286047000.6,N
1514541755.9,286047001.0,N
1514541775.7,286046998.6,N
1514541795.6,286046996.5,N
1514541815.4,286046997.5,N
1514541835.2,286046997.4,N
1514541855.1,286046999.0,N
1514541886.0,286046999.0,E
1514541895.0,286046998.8,N
1514541895.9,286046998.8,P
1514541915.8,286046997.2,P
1514541935.6,286046998.6,N
1514541955.4,286047001.2,N
1514541975.3,286047001.0,N
1514541995.1,286046999.1,N
1514542015.8,286046998.6,N
1514542035.7,286046999.3,N
1514542055.5,286046999.5,N
1514542075.4,286046997.2,N
1514542095.2,286046995.5,Y
1514542115.0,286046998.7,P
1514542115.9,286046998.7,P
1514542135.8,286046998.3,P
1514542155.6,286046998.6,Y
1514542175.5,286047002.1,P
1514542195.3,286047000.1,N
1514542215.1,286046999.7,N
1514542235.9,286046998.3,N
1514542255.7,286046998.1,N
1514542275.6,286046999.9,N
1514542295.4,286047001.0,N
1514542315.2,286047002.2,N
1514542335.1,286047003.9,N
1514542336.0,286047003.9,N
1514542355.8,286047005.6,N
1514542375.7,286047005.6,N
1514542395.5,286047007.2,N
1514542415.3,286047006.5,N
1514542435.2,286047007.6,N
1514542455.9,286047001.8,N
1514542475.7,286047003.0,N
1514542495.6,286047003.5,N
1514542515.4,286047004.8,N
1514542535.3,286047007.5,N
1514542555.1,286047004.5,N
1514542556.0,286047004.5,N
1514542575.8,286047004.5,N
1514542595.7,286047007.2,N
1514542615.5,286047007.3,N
1514542635.3,286047006.8,N
1514542655.2,286047006.5,N
1514542675.0,286047008.4,N
1514542675.9,286047008.4,N
1514542695.8,286047006.4,N
1514542715.6,286047007.3,N
1514542735.4,286047007.1,N
1514542755.3,286047006.1,N
1514542775.1,286047004.7,N
1514542795.9,286047005.1,N
1514542815.7,286047009.1,Y
1514542835.5,286047004.3,P
1514542855.4,286047001.9,P
1514542875.2,286047001.0,N
1514542895.0,286047002.0,N
1514542896.0,286047002.0,N
1514542915.8,286047002.4,N
1514542935.6,286047000.2,N
1514542955.5,286047000.3,N
1514542975.3,286047000.9,N
1514542995.1,286047000.4,N
1514543015.9,286047002.8,N
1514543035.7,286047001.3,N
1514543055.6,286047002.3,N
1514543075.4,286047002.0,N
1514543095.2,286047000.3,N
1514543115.1,286046999.9,N
1514543116.0,286046999.9,N
1514543135.8,286047000.9,N
1514543155.6,286047002.3,N
1514543175.5,286046998.2,N
1514543195.3,286046999.9,N
1514543215.2,286047000.7,N
1514543235.9,286047000.1,N
1514543255.7,286047000.0,N
1514543275.6,286046998.6,N
1514543295.4,286046999.9,N
1514543315.3,286047000.8,N
1514543335.1,286047001.0,N
1514543336.0,286047001.0,N
1514543355.8,286046999.9,N
1514543375.7,286047004.4,Y
1514543395.5,286047002.1,P
1514543415.4,286047000.8,N
1514543435.2,286047000.1,N
1514543455.0,286047001.1,N
1514543455.9,286047001.1,N
1514543475.8,286047002.5,Y
1514543495.6,286047000.3,P
1514543515.5,286047000.1,N
1514543535.3,286047000.8,N
1514543555.1,286046996.7,Y
1514543575.9,286046996.6,P
1514543595.7,286046996.8,N
1514543615.5,286046994.9,N
1514543635.4,286046995.1,N
1514543655.2,286046995.9,N
1514543675.1,286046993.6,Y
1514543676.0,286046993.6,P
1514543695.8,286046999.0,N
1514543715.6,286046999.1,N
1514543735.5,286047000.7,N
1514543755.3,286047000.5,N
1514543775.2,286047000.6,N
1514543795.9,286047000.8,N
1514543815.7,286046999.9,N
1514543835.6,286047001.9,N
1514543855.4,286047001.8,N
1514543875.2,286047002.0,N
1514543895.1,286047000.5,N
1514543896.0,286047000.5,N
1514543915.8,286047002.7,N
1514543935.7,286047002.4,N
1514543955.5,286047000.0,N
1514543975.3,286046998.8,N
1514543995.2,286046997.0,N
1514544015.0,286046996.7,N
1514544015.9,286046996.7,N
1514544035.8,286046998.7,N
1514544055.6,286047000.3,N
1514544075.4,286047002.4,N
1514544095.3,286047003.8,N
1514544115.1,286047004.0,N
1514544135.8,286047003.5,N
1514544155.7,286047003.6,N
1514544175.5,286047003.9,N
1514544195.4,286047003.1,N
1514544215.2,286047006.0,N
1514544235.0,286047002.0,N
1514544235.9,286047002.0,N
1514544255.8,286047002.4,N
1514544275.6,286046996.5,N
1514544295.5,286046995.0,N
1514544315.3,286046997.6,N
1514544335.1,286046994.9,N
1514544355.9,286046995.5,N
1514544375.7,286046995.3,N
1514544395.5,286046993.4,N
1514544415.4,286046997.9,N
1514544435.2,286046996.9,N
1514544455.1,286046998.6,N
1514544456.0,286046998.6,N
1514544475.8,286046999.3,N
1514544495.6,286046998.9,N
1514544515.5,286047002.8,N
1514544535.3,286047004.1,N
1514544555.2,286047003.0,N
1514544575.9,286047004.1,N
1514544595.7,286047005.7,N
1514544615.6,286047005.7,N
1514544635.4,286047004.3,N
1514544655.3,286047003.9,N
1514544675.1,286047004.2,N
1514544676.0,286047004.2,N
1514544695.8,286047004.3,N
1514544715.7,286047001.9,N
1514544735.5,286047002.6,N
1514544755.4,286047002.8,N
1514544775.2,286047002.0,N
1514544795.0,286047000.1,N
1514544795.9,286047000.1,N
1514544815.8,286047002.3,N
1514544835.6,286047000.4,N
1514544855.4,286046998.1,N
1514544875.3,286046999.7,N
1514544895.1,286047001.1,N
1514544915.9,286047001.8,N
1514544935.7,286047004.4,N
1514544955.5,286047004.0,N
1514544975.4,286047002.6,N
1514544995.2,286047004.1,N
1514545015.1,286047002.5,N
1514545016.0,286047002.5,N
1514545035.8,286047004.1,N
1514545055.6,286047003.8,N
1514545075.5,286047003.1,N
1514545095.3,286047001.3,N
1514545115.2,286047000.0,N
1514545135.9,286047001.2,N
1514545155.7,286047000.1,N
1514545175.6,286047006.0,Y
1514545195.4,286047000.3,P
